Location: Lango�lan
(48.1202°N, 3.2340°W)
Time: 19:05:58
(UTC+00:00)

Cosmos 2219 Rocket - Pass Details

Date: 23 October 2019
Orbit: 828 x 846 km, 71.0° (Epoch: 14 November)

Event Time Altitude Azimuth Distance (km) Brightness Sun altitude
Exits shadow 03:47:42 37° 356° (N) 1,272 3.1 -29.8°
Drops below altitude 10° 03:51:20 10° 20° (NNE) 2,447 5.0 -29.2°
Sets 03:53:51 0° 26° (NNE) 3,387 5.9 -28.8°
